Location: Tehachapi Municipal Airport
(35.1300°N, 118.4400°W)
Time: 07:13:00
(UTC-08:00)

BREEZE M DEB (TANK) - Visible Passes

Search period start: 10 February 2016 00:00
Search period end: 20 February 2016 00:00
Orbit: 303 x 12040 km, 49.5° (Epoch: 08 February)

Date Brightness Start Highest point End Pass type
(mag) Time Alt. Az. Time Alt. Az. Time Alt. Az.
10 Feb 7.9 02:07:26 10° SSW 03:41:55 72° SE 04:09:13 10° NE visible
11 Feb 8.1 01:23:00 10° S 02:55:26 63° SE 03:26:01 10° NE visible
11 Feb 6.7 06:12:10 10° WSW 07:17:49 56° NNW 07:30:16 10° NE visible
12 Feb 8.4 00:40:17 10° S 02:08:56 54° ESE 02:42:26 10° ENE visible
12 Feb 6.9 05:14:29 10° WSW 06:32:47 64° NNW 06:47:40 10° NE visible
12 Feb 8.5 23:59:31 10° S 01:22:42 45° ESE 01:58:18 10° ENE visible
13 Feb 7.2 04:19:35 10° SW 05:47:19 72° NW 06:04:57 10° NE visible
13 Feb 8.6 23:21:16 10° SSE 00:36:55 36° ESE 01:13:20 10° ENE visible
14 Feb 7.4 03:27:37 10° SW 05:01:24 80° NW 05:22:08 10° NE visible
14 Feb 8.7 22:46:46 10° SE 23:51:47 27° ESE 00:27:00 10° ENE visible
15 Feb 7.6 02:38:07 10° SSW 04:14:59 90° NW 04:39:08 10° NE visible
15 Feb 8.8 22:18:27 10° SE 23:07:23 19° E 23:37:58 10° ENE visible
16 Feb 7.8 01:50:41 10° SSW 03:28:08 81° SE 03:55:57 10° NE visible
16 Feb 9.0 22:04:20 10° ESE 22:23:48 12° E 22:39:37 10° E visible
17 Feb 8.0 01:04:58 10° SSW 02:41:00 71° SE 03:12:31 10° NE visible
17 Feb 6.7 06:02:38 10° W 07:04:52 53° NNW 07:16:48 10° ENE visible
18 Feb 8.2 00:20:52 10° S 01:53:49 62° ESE 02:28:44 10° NE visible
18 Feb 6.9 05:02:59 10° WSW 06:19:20 59° NNW 06:33:47 10° ENE visible
18 Feb 8.4 23:38:24 10° S 01:06:50 53° ESE 01:44:31 10° NE visible
19 Feb 7.2 04:05:59 10° WSW 05:33:19 66° NNW 05:50:42 10° NE visible
